FW7461 Weather Reports


time (UTC)temp
F
wind
direction
speed
knots
gust
knots
rain 1hr
in
rain 24hr
in
rain mn
in
humidity
%
barometer
mb
20260509211403 73 83 8.7 11.3 0.00 0.00 0.00 85 1017.5
20260509210900 74 99 8.7 8.7 0.00 0.00 0.00 81 1017.3
20260509210357 79 23 2.6 4.3 0.00 0.00 0.00 62 1017.2
20260509205852 79 350 0.0 0.9 0.00 0.00 0.00 61 1017.3
20260509205346 79 27 0.0 0.0 0.00 0.00 0.00 61 1017.3
20260509204844 79 341 1.7 1.7 0.00 0.00 0.00 61 1017.5
20260509204340 79 305 1.7 1.7 0.00 0.00 0.00 61 1017.4
20260509203836 79 303 1.7 1.7 0.00 0.00 0.00 60 1017.3
20260509203333 80 341 2.6 2.6 0.00 0.00 0.00 60 1017.3
20260509202829 80 324 4.3 7.0 0.00 0.00 0.00 60 1017.1
20260509202326 80 343 2.6 4.3 0.00 0.00 0.00 59 1017.0
20260509201825 80 0 4.3 6.1 0.00 0.00 0.00 59 1016.8
20260509201322 80 62 2.6 2.6 0.00 0.00 0.00 59 1016.8
20260509200818 80 316 7.8 8.7 0.00 0.00 0.00 59 1016.6
20260509200314 80 6 3.5 5.2 0.00 0.00 0.00 59 1016.4
20260509195810 80 9 3.5 5.2 0.00 0.00 0.00 58 1016.9
20260509195306 80 15 2.6 4.3 0.00 0.00 0.00 58 1016.4
20260509194805 81 325 2.6 2.6 0.00 0.00 0.00 57 1016.3
20260509194301 81 62 1.7 2.6 0.00 0.00 0.00 57 1016.7
20260509193758 82 36 0.9 0.9 0.00 0.00 0.00 56 1016.2
20260509193258 81 24 0.9 1.7 0.00 0.00 0.00 57 1016.3
20260509192754 81 317 6.1 7.8 0.00 0.00 0.00 57 1016.3
20260509192250 81 301 7.8 11.3 0.00 0.00 0.00 57 1016.2
20260509191745 81 126 2.6 2.6 0.00 0.00 0.00 58 1016.2
20260509191242 80 356 0.0 0.9 0.00 0.00 0.00 60 1016.3
20260509190738 80 343 2.6 4.3 0.00 0.00 0.00 61 1016.1
20260509190235 80 26 2.6 2.6 0.00 0.00 0.00 61 1016.2
20260509185732 80 119 1.7 1.7 0.00 0.00 0.00 61 1016.3
20260509185229 80 341 4.3 6.1 0.00 0.00 0.00 61 1016.3
20260509184726 80 236 5.2 7.8 0.00 0.00 0.00 61 1016.2
20260509184224 80 0 6.1 7.8 0.00 0.00 0.00 61 1016.4
20260509183720 80 2 2.6 4.3 0.00 0.00 0.00 61 1016.3
20260509183215 80 46 7.0 7.8 0.00 0.00 0.00 61 1016.2
20260509182711 80 7 7.0 11.3 0.00 0.00 0.00 61 1016.4
20260509182209 80 319 3.5 5.2 0.00 0.00 0.00 62 1016.1
20260509181706 80 280 6.1 7.0 0.00 0.00 0.00 62 1016.1
20260509181203 80 128 2.6 2.6 0.00 0.00 0.00 62 1016.4
20260509180700 80 291 6.1 9.6 0.00 0.00 0.00 62 1016.4
20260509180156 79 329 6.1 8.7 0.00 0.00 0.00 62 1016.3
20260509175653 80 38 4.3 7.0 0.00 0.00 0.00 62 1016.3
20260509175149 80 353 3.5 4.3 0.00 0.00 0.00 62 1016.3
20260509174645 80 302 2.6 2.6 0.00 0.00 0.00 61 1016.3
20260509174140 80 301 3.5 5.2 0.00 0.00 0.00 62 1016.3
20260509173636 79 322 9.6 9.6 0.00 0.00 0.00 62 1016.4
20260509173132 79 148 2.6 4.3 0.00 0.00 0.00 62 1016.3
20260509172629 79 0 7.0 9.6 0.00 0.00 0.00 62 1016.8
20260509172125 79 349 6.1 7.8 0.00 0.00 0.00 62 1016.7
20260509171621 79 344 10.4 14.8 0.00 0.00 0.00 61 1016.8
20260509171117 80 340 1.7 2.6 0.00 0.00 0.00 61 1016.8
20260509170614 79 307 6.1 8.7 0.00 0.00 0.00 61 1016.7
20260509170110 79 26 2.6 5.2 0.00 0.00 0.00 61 1016.8
20260509165608 79 2 5.2 7.0 0.00 0.00 0.00 61 1016.7
20260509165104 79 306 4.3 6.1 0.00 0.00 0.00 61 1016.7
20260509164600 79 2 7.8 8.7 0.00 0.00 0.00 61 1016.8
20260509164055 80 351 7.8 9.6 0.00 0.00 0.00 62 1017.0
20260509163554 80 354 2.6 4.3 0.00 0.00 0.00 61 1017.1
20260509163049 80 329 6.1 7.8 0.00 0.00 0.00 61 1017.0
20260509162546 80 329 9.6 13.9 0.00 0.00 0.00 61 1017.0
20260509162042 79 301 14.8 17.4 0.00 0.00 0.00 62 1017.1
20260509161538 80 23 2.6 4.3 0.00 0.00 0.00 61 1017.1
20260509161033 79 315 6.1 8.7 0.00 0.00 0.00 62 1017.2
20260509160530 80 337 7.8 9.6 0.00 0.00 0.00 62 1017.1
20260509160025 79 141 2.6 2.6 0.00 0.00 0.00 61 1017.2
20260509155521 79 339 7.8 7.8 0.00 0.00 0.00 62 1016.9
20260509155018 79 313 7.8 12.2 0.00 0.00 0.00 62 1017.2
20260509154514 80 320 5.2 7.0 0.00 0.00 0.00 62 1017.2
20260509154012 79 349 2.6 4.3 0.00 0.00 0.00 62 1017.1
20260509153509 79 346 6.1 7.8 0.00 0.00 0.00 62 1017.2
20260509153006 79 347 5.2 7.0 0.00 0.00 0.00 62 1017.1
20260509152501 79 351 7.0 7.8 0.00 0.00 0.00 62 1017.5
20260509151958 79 68 3.5 5.2 0.00 0.00 0.00 62 1017.5
20260509151454 79 346 2.6 4.3 0.00 0.00 0.00 63 1017.9
20260509150953 78 355 4.3 7.0 0.00 0.00 0.00 64 1017.6
20260509150449 78 91 8.7 11.3 0.00 0.00 0.00 63 1017.9
20260509145942 78 0 5.2 7.8 0.00 0.00 0.00 64 1017.9
20260509145437 78 266 3.5 5.2 0.00 0.00 0.00 64 1018.1
20260509144932 78 6 7.0 8.7 0.00 0.00 0.00 64 1018.1
20260509144430 78 62 2.6 5.2 0.00 0.00 0.00 65 1018.0
20260509143927 77 352 0.9 0.9 0.00 0.00 0.00 66 1018.1
20260509143424 77 198 4.3 5.2 0.00 0.00 0.00 65 1018.7
20260509142920 77 337 6.1 7.8 0.00 0.00 0.00 66 1018.5
20260509142417 77 321 3.5 4.3 0.00 0.00 0.00 66 1018.5
20260509141912 76 63 4.3 5.2 0.00 0.00 0.00 67 1018.4
20260509141410 76 335 2.6 5.2 0.00 0.00 0.00 67 1018.5
20260509140906 76 2 3.5 4.3 0.00 0.00 0.00 67 1018.5
20260509140403 76 343 0.9 0.9 0.00 0.00 0.00 67 1018.6
20260509135901 76 356 2.6 2.6 0.00 0.00 0.00 67 1018.6
20260509135358 76 4 2.6 6.1 0.00 0.00 0.00 67 1018.5
20260509134855 75 328 1.7 2.6 0.00 0.00 0.00 68 1018.6
20260509134353 75 292 1.7 1.7 0.00 0.00 0.00 69 1018.7
20260509133849 74 41 3.5 5.2 0.00 0.00 0.00 70 1018.5
20260509133346 74 300 4.3 5.2 0.00 0.00 0.00 70 1018.6
20260509132845 74 340 5.2 6.1 0.00 0.00 0.00 71 1018.9
20260509132343 74 4 4.3 6.1 0.00 0.00 0.00 70 1018.8
20260509131840 73 317 3.5 5.2 0.00 0.00 0.00 71 1019.0
20260509131336 74 5 7.0 7.8 0.00 0.00 0.00 71 1019.0
20260509130833 74 10 2.6 2.6 0.00 0.00 0.00 71 1019.0
20260509130328 74 353 2.6 4.3 0.00 0.00 0.00 71 1018.9
20260509125825 74 254 2.6 2.6 0.00 0.00 0.00 69 1018.9
20260509125322 74 350 2.6 2.6 0.00 0.00 0.00 69 1019.0
20260509124818 74 351 4.3 5.2 0.00 0.00 0.00 69 1018.7
20260509124315 74 213 1.7 2.6 0.00 0.00 0.00 70 1018.8
20260509123814 74 72 6.1 7.8 0.00 0.00 0.00 70 1018.5
20260509123310 73 316 6.1 7.8 0.00 0.00 0.00 70 1018.5
20260509122806 73 336 1.7 4.3 0.00 0.00 0.00 71 1018.5
20260509122306 74 329 2.6 2.6 0.00 0.00 0.00 70 1018.3
20260509121800 73 2 4.3 6.1 0.00 0.00 0.00 71 1018.7
20260509121257 73 46 4.3 5.2 0.00 0.00 0.00 71 1018.4
20260509120755 73 294 2.6 4.3 0.00 0.00 0.00 70 1018.3
20260509120252 73 3 2.6 4.3 0.00 0.00 0.00 71 1018.3
20260509115751 73 3 3.5 4.3 0.00 0.00 0.00 72 1018.3
20260509115247 73 355 1.7 2.6 0.00 0.00 0.00 71 1018.0
20260509114745 73 355 4.3 5.2 0.00 0.00 0.00 72 1018.2
20260509114244 73 8 2.6 2.6 0.00 0.00 0.00 72 1018.3
20260509113742 72 23 1.7 1.7 0.00 0.00 0.00 72 1018.2
20260509113239 72 22 1.7 2.6 0.00 0.00 0.00 72 1018.0
20260509112736 72 313 2.6 2.6 0.00 0.00 0.00 73 1018.1
20260509112233 72 290 3.5 4.3 0.00 0.00 0.00 73 1017.7
20260509111730 72 278 1.7 2.6 0.00 0.00 0.00 73 1018.1
20260509111226 71 326 7.8 7.8 0.00 0.00 0.00 73 1017.7
20260509110724 71 272 4.3 5.2 0.00 0.00 0.00 73 1018.0
20260509110221 72 282 3.5 6.1 0.00 0.00 0.00 73 1017.2
20260509105719 72 322 5.2 6.1 0.00 0.00 0.00 73 1017.3
20260509105216 72 299 2.6 2.6 0.00 0.00 0.00 73 1017.1
20260509104713 71 13 2.6 4.3 0.00 0.00 0.00 73 1017.0
20260509104210 71 327 1.7 1.7 0.00 0.00 0.00 74 1017.1
20260509103708 71 12 2.6 4.3 0.00 0.00 0.00 74 1017.0
20260509103205 71 16 0.9 0.9 0.00 0.00 0.00 73 1016.9
20260509102703 71 76 1.7 2.6 0.00 0.00 0.00 73 1016.8
20260509102200 72 303 8.7 9.6 0.00 0.00 0.00 72 1016.6
20260509101656 73 269 6.1 7.0 0.00 0.00 0.00 71 1016.4
20260509101152 74 147 5.2 7.8 0.00 0.00 0.00 67 1016.3
20260509100650 74 344 7.0 8.7 0.00 0.00 0.00 67 1016.3
20260509100147 74 322 2.6 2.6 0.00 0.00 0.00 67 1015.9
20260509095643 74 332 6.1 7.8 0.00 0.00 0.00 67 1015.9
20260509095141 74 13 6.1 7.0 0.00 0.00 0.00 67 1015.9
20260509094637 74 326 2.6 4.3 0.00 0.00 0.00 67 1015.5
20260509094134 74 349 2.6 2.6 0.00 0.00 0.00 67 1015.7
20260509093633 74 28 3.5 4.3 0.00 0.00 0.00 67 1015.3
20260509093129 74 97 5.2 9.6 0.00 0.00 0.00 67 1015.5
20260509092627 74 335 7.8 12.2 0.00 0.00 0.00 67 1015.5
20260509092126 74 43 2.6 2.6 0.00 0.00 0.00 67 1015.4
20260509091624 74 14 5.2 7.0 0.00 0.00 0.00 67 1015.6
20260509091119 74 9 2.6 5.2 0.00 0.00 0.00 67 1015.4
20260509090617 74 0 3.5 4.3 0.00 0.00 0.00 68 1015.3
20260509090115 74 26 4.3 7.8 0.00 0.00 0.00 68 1015.3
20260509085612 74 320 7.8 9.6 0.00 0.00 0.00 68 1014.9
20260509085108 74 312 3.5 5.2 0.00 0.00 0.00 67 1014.8
20260509084605 74 328 4.3 13.0 0.00 0.00 0.00 68 1014.9
20260509084102 74 7 4.3 5.2 0.00 0.00 0.00 68 1015.0
20260509083559 74 7 2.6 7.0 0.00 0.00 0.00 68 1014.7
20260509083055 74 306 2.6 5.2 0.00 0.00 0.00 68 1014.4
20260509082553 74 54 2.6 7.8 0.00 0.00 0.00 68 1014.8
20260509082050 74 356 3.5 5.2 0.00 0.00 0.00 68 1014.4
20260509081547 74 41 2.6 7.0 0.00 0.00 0.00 68 1014.7
20260509081044 74 38 7.0 13.0 0.00 0.00 0.00 68 1014.8
20260509080542 74 1 10.4 14.8 0.00 0.00 0.00 68 1014.8
20260509080040 74 329 2.6 6.1 0.00 0.00 0.00 68 1014.8
20260509075537 74 15 9.6 13.9 0.00 0.00 0.00 68 1014.9
20260509075035 74 16 7.0 11.3 0.00 0.00 0.00 68 1014.8
20260509074532 74 342 4.3 5.2 0.00 0.00 0.00 68 1014.8
20260509074028 74 346 3.5 5.2 0.00 0.00 0.00 68 1014.8
20260509073525 74 343 7.0 8.7 0.00 0.00 0.00 68 1014.7
20260509073021 74 356 2.6 2.6 0.00 0.00 0.00 68 1014.8
20260509072518 74 15 7.8 9.6 0.00 0.00 0.00 68 1014.9
20260509072015 74 301 10.4 17.4 0.00 0.00 0.00 68 1014.9
20260509071511 74 358 6.1 7.8 0.00 0.00 0.00 68 1014.7
20260509071009 74 111 7.0 8.7 0.00 0.00 0.00 68 1015.0
20260509070506 74 279 9.6 13.0 0.00 0.00 0.00 68 1014.8
20260509070002 74 359 6.1 7.8 0.00 0.00 0.00 69 1014.9
20260509065457 73 344 2.6 5.2 0.00 0.00 0.00 69 1015.0
20260509064954 73 8 5.2 7.0 0.00 0.00 0.00 69 1014.8
20260509064452 73 323 9.6 13.9 0.00 0.00 0.00 69 1015.3
20260509063950 73 16 5.2 7.8 0.00 0.00 0.00 69 1014.8
20260509063445 73 355 6.1 7.8 0.00 0.00 0.00 70 1014.9
20260509062942 73 0 4.3 6.1 0.00 0.00 0.00 69 1014.9
20260509062439 73 111 4.3 6.1 0.00 0.00 0.00 69 1014.8
20260509061937 74 342 3.5 5.2 0.00 0.00 0.00 69 1015.3
20260509061434 74 20 5.2 7.0 0.00 0.00 0.00 69 1014.9
20260509060931 74 99 2.6 4.3 0.00 0.00 0.00 69 1015.0
20260509060429 74 3 7.8 9.6 0.00 0.00 0.00 69 1015.1
20260509055923 74 3 3.5 6.1 0.00 0.00 0.00 69 1015.0
20260509055419 74 111 7.0 11.3 0.00 0.00 0.00 69 1015.1
20260509054916 74 7 4.3 6.1 0.00 0.00 0.00 69 1015.0
20260509054413 73 359 3.5 4.3 0.00 0.00 0.00 69 1015.3
20260509053911 74 350 2.6 2.6 0.00 0.00 0.00 69 1015.1
20260509053408 74 10 1.7 4.3 0.00 0.00 0.00 69 1015.3
20260509052906 74 13 4.3 5.2 0.00 0.00 0.00 69 1015.1
20260509052403 74 355 2.6 2.6 0.00 0.00 0.00 69 1015.4
20260509051901 74 15 2.6 2.6 0.00 0.00 0.00 69 1015.3
20260509051359 74 138 5.2 7.0 0.00 0.00 0.00 69 1015.3
20260509050855 74 8 6.1 8.7 0.00 0.00 0.00 69 1015.3
20260509050352 74 50 5.2 7.0 0.00 0.00 0.00 70 1015.0
20260509045849 74 8 3.5 5.2 0.00 0.00 0.00 70 1015.5
20260509045346 73 4 7.0 9.6 0.00 0.00 0.00 70 1015.1
20260509044843 73 136 5.2 7.0 0.00 0.00 0.00 70 1014.9
20260509044341 73 2 3.5 5.2 0.00 0.00 0.00 70 1015.0
20260509043837 74 155 3.5 6.1 0.00 0.00 0.00 70 1015.0
20260509043333 73 14 0.9 4.3 0.00 0.00 0.00 70 1015.1
20260509042829 73 104 4.3 7.0 0.00 0.00 0.00 71 1015.1
20260509042326 73 6 6.1 8.7 0.00 0.00 0.00 72 1015.4
20260509041822 73 238 2.6 4.3 0.00 0.00 0.00 72 1015.5
20260509041319 73 340 7.0 9.6 0.00 0.00 0.00 72 1015.6
20260509040818 73 44 3.5 4.3 0.00 0.00 0.00 73 1015.3
20260509040315 73 356 1.7 1.7 0.00 0.00 0.00 73 1015.6
20260509035811 73 5 7.0 8.7 0.00 0.00 0.00 73 1015.5
20260509035309 73 347 3.5 4.3 0.00 0.00 0.00 73 1015.4
20260509034805 72 51 0.9 0.9 0.00 0.00 0.00 74 1015.5
20260509034303 73 154 3.5 5.2 0.00 0.00 0.00 73 1015.1
20260509033759 73 329 3.5 4.3 0.00 0.00 0.00 73 1015.4
20260509033257 73 109 2.6 2.6 0.00 0.00 0.00 73 1015.4
20260509032754 73 359 4.3 6.1 0.00 0.00 0.00 73 1015.4
20260509032251 73 356 2.6 5.2 0.00 0.00 0.00 73 1015.1
20260509031748 73 76 5.2 6.1 0.00 0.00 0.00 73 1015.5
20260509031246 73 339 1.7 2.6 0.00 0.00 0.00 73 1015.1
20260509030743 73 22 2.6 2.6 0.00 0.00 0.00 73 1015.3
20260509030241 73 92 2.6 2.6 0.00 0.00 0.00 73 1015.0
20260509025738 73 30 2.6 5.2 0.00 0.00 0.00 73 1015.3
20260509025233 73 6 2.6 2.6 0.00 0.00 0.00 73 1015.4
20260509024728 73 24 4.3 6.1 0.00 0.00 0.00 73 1015.3
20260509024224 73 90 2.6 5.2 0.00 0.00 0.00 73 1015.4
20260509023722 73 359 2.6 4.3 0.00 0.00 0.00 73 1015.5
20260509023219 73 1 4.3 5.2 0.00 0.00 0.00 73 1015.4
20260509022715 73 355 1.7 4.3 0.00 0.00 0.00 73 1015.3
20260509022213 73 347 2.6 4.3 0.00 0.00 0.00 73 1015.4
20260509021710 73 4 4.3 7.0 0.00 0.00 0.00 72 1015.4
20260509021207 73 30 2.6 4.3 0.00 0.00 0.00 72 1015.6
20260509020705 73 350 2.6 4.3 0.00 0.00 0.00 73 1015.7
20260509020202 73 28 2.6 2.6 0.00 0.00 0.00 73 1015.5
20260509015700 73 347 1.7 1.7 0.00 0.00 0.00 73 1015.5
20260509015158 73 51 3.5 5.2 0.00 0.00 0.00 72 1015.5
20260509014654 73 75 5.2 7.0 0.00 0.00 0.00 73 1015.4
20260509014151 73 45 5.2 7.8 0.00 0.00 0.00 72 1015.4
20260509013648 74 2 3.5 6.1 0.00 0.00 0.00 72 1015.6
20260509013143 74 346 4.3 6.1 0.00 0.00 0.00 72 1015.4
20260509012640 74 69 4.3 6.1 0.00 0.00 0.00 71 1015.4
20260509012137 74 80 2.6 4.3 0.00 0.00 0.00 71 1015.4
20260509011635 74 277 0.9 0.9 0.00 0.00 0.00 71 1015.3
20260509011132 75 21 6.1 7.8 0.00 0.00 0.00 70 1015.5
20260509010630 75 316 1.7 2.6 0.00 0.00 0.00 70 1015.4
20260509010126 75 5 2.6 4.3 0.00 0.00 0.00 70 1015.5
20260509005624 75 61 1.7 1.7 0.00 0.00 0.00 69 1015.5
20260509005119 75 24 4.3 7.0 0.00 0.00 0.00 70 1015.6
20260509004616 75 74 5.2 7.8 0.00 0.00 0.00 69 1015.7
20260509004113 75 21 2.6 5.2 0.00 0.00 0.00 69 1015.4
20260509003611 75 358 4.3 6.1 0.00 0.00 0.00 68 1015.3
20260509003108 76 81 7.8 11.3 0.00 0.00 0.00 67 1015.3
20260509002606 76 97 2.6 4.3 0.00 0.00 0.00 66 1015.4
20260509002103 76 112 3.5 7.0 0.00 0.00 0.00 66 1015.4
20260509001600 77 334 6.1 8.7 0.00 0.00 0.00 65 1015.4
20260509001056 77 12 4.3 7.8 0.00 0.00 0.00 64 1015.1
20260509000555 77 115 3.5 5.2 0.00 0.00 0.00 63 1015.1
20260509000050 77 352 2.6 4.3 0.00 0.00 0.00 61 1015.1
20260508235548 77 79 2.6 4.3 0.00 0.00 0.00 60 1015.0
20260508235044 77 107 4.3 7.0 0.00 0.00 0.00 63 1015.0
20260508234542 78 281 5.2 6.1 0.00 0.00 0.00 62 1015.0
20260508234038 78 357 7.8 11.3 0.00 0.00 0.00 63 1015.1
20260508233538 78 21 2.6 2.6 0.00 0.00 0.00 65 1015.6
20260508233035 78 22 4.3 5.2 0.00 0.00 0.00 63 1015.3
20260508232531 78 4 2.6 2.6 0.00 0.00 0.00 64 1015.5
20260508232029 78 300 0.9 1.7 0.00 0.00 0.00 64 1015.3
20260508231526 78 359 0.9 2.6 0.00 0.00 0.00 64 1015.1
20260508231023 78 102 3.5 4.3 0.00 0.00 0.00 64 1014.9
20260508230520 78 14 0.9 1.7 0.00 0.00 0.00 64 1015.4
20260508230017 78 88 1.7 1.7 0.00 0.00 0.00 65 1015.3
20260508225514 78 23 2.6 2.6 0.00 0.00 0.00 65 1015.4
20260508225010 78 3 0.9 2.6 0.00 0.00 0.00 64 1015.6
20260508224508 78 9 2.6 2.6 0.00 0.00 0.00 63 1015.5
20260508224005 78 31 1.7 1.7 0.00 0.00 0.00 64 1015.5
20260508223503 78 0 0.9 0.9 0.00 0.00 0.00 64 1015.4
20260508223000 78 1 0.0 0.0 0.00 0.00 0.00 64 1015.3
20260508222458 78 11 0.9 1.7 0.00 0.00 0.00 64 1015.4
20260508221953 79 19 1.7 2.6 0.00 0.00 0.00 63 1015.4
20260508221450 79 340 1.7 1.7 0.00 0.00 0.00 62 1015.3
20260508220946 79 10 0.9 1.7 0.00 0.00 0.00 63 1015.0
20260508220443 79 349 0.9 0.9 0.00 0.00 0.00 62 1015.1
20260508215939 79 358 0.9 0.9 0.00 0.00 0.00 62 1015.3
20260508215436 79 20 0.9 0.9 0.00 0.00 0.00 62 1014.9
20260508214932 79 332 0.9 0.9 0.00 0.00 0.00 62 1015.0
20260508214431 79 80 0.9 0.9 0.00 0.00 0.00 62 1015.1
20260508213926 79 89 1.7 1.7 0.00 0.00 0.00 61 1015.0
20260508213424 79 21 2.6 2.6 0.00 0.00 0.00 61 1014.9
20260508212919 79 2 0.9 0.9 0.00 0.00 0.00 60 1014.9
20260508212416 80 2 2.6 2.6 0.00 0.00 0.00 60 1015.1
20260508211912 79 15 0.9 1.7 0.00 0.00 0.00 60 1014.7